Date String (YYYY-MM-DD hh:mm:ss) UTC,Instrument flags,Ambient pressure (hPa),Sample flow (lpm),Bypass flow (lpm),Sample temperature (°C),Ambient temperature (°C),ASC tube jacket temperature (°C),LED temperature (°C),Box temperature (°C),Sample RH (%),Span deviation,Mass concentration (μg/m³),Mass concentration (μg/m³),Mass concentration (μg/m³)
DateTimeUTC,F1_M11,P_M11,Q1_M11,Q2_M11,T1_M11,T2_M11,T3_M11,T4_M11,T5_M11,U1_M11,ZSPAN_M11,X2_M11,X0_M11,X1_M11
2021-08-20 00:00:00,,0824.3,4.99,0.00,32.7,28.5,00.0,40.5,32.3,30.2,0001.7,0006.81,0012.19,0005.48
2021-08-20 00:01:00,,0824.3,5.01,0.00,32.7,28.6,00.0,40.5,32.3,31.1,0001.7,0006.60,0012.75,0005.39
2021-08-20 00:02:00,,0824.3,4.99,0.00,32.6,28.8,00.0,40.6,32.4,31.8,0001.8,0006.41,0012.36,0005.33
2021-08-20 00:03:00,,0824.2,5.00,0.00,32.6,28.9,00.0,40.7,32.4,32.5,0001.8,0006.46,0012.02,0005.36
2021-08-20 00:04:00,,0824.2,5.00,0.00,32.6,29.0,00.0,40.7,32.5,31.7,0001.6,0006.41,0011.82,0005.37
2021-08-20 00:05:00,,0824.2,5.01,0.00,32.5,28.5,00.0,40.8,32.3,31.2,0001.8,0006.23,0011.28,0005.31
2021-08-20 00:06:00,,0824.2,4.99,0.00,32.3,26.7,00.0,40.7,31.9,32.1,0001.2,0006.04,0010.83,0005.25
2021-08-20 00:07:00,,0824.2,5.01,0.00,32.1,25.9,00.0,40.7,31.6,32.5,0001.3,0005.97,0010.80,0005.21
2021-08-20 00:08:00,,0824.2,4.99,0.00,31.9,26.0,00.0,40.7,31.6,33.2,0000.8,0005.95,0010.80,0005.20
2021-08-20 00:09:00,,0824.2,5.00,0.00,31.8,26.4,00.0,40.6,31.7,32.5,0000.7,0005.97,0010.90,0005.21
2021-08-20 00:10:00,,0824.2,5.02,0.00,31.7,26.9,00.0,40.5,31.8,32.8,0000.8,0005.93,0010.82,0005.20
2021-08-20 00:11:00,,0824.2,5.00,0.00,31.6,27.3,00.0,40.5,31.8,33.5,0001.0,0005.93,0010.61,0005.21
2021-08-20 00:12:00,,0824.2,4.99,0.00,31.5,27.7,00.0,40.5,31.9,35.1,0001.4,0005.91,0009.75,0005.18
2021-08-20 00:13:00,,0824.1,5.00,0.00,31.6,28.0,00.0,40.4,32.0,35.7,0001.6,0005.83,0009.46,0005.13
2021-08-20 00:14:00,,0824.1,4.99,0.00,31.9,28.2,00.0,40.4,32.2,35.2,0001.9,0005.70,0009.31,0005.05
2021-08-20 00:15:00,,0824.2,5.00,0.00,32.1,28.4,00.0,40.4,32.4,34.1,0002.0,0005.68,0009.37,0005.01
2021-08-20 00:16:00,,0824.2,5.01,0.00,32.3,28.6,00.0,40.4,32.4,34.2,0001.9,0005.70,0009.44,0005.01
2021-08-20 00:17:00,,0824.2,4.98,0.00,32.4,28.7,00.0,40.4,32.4,34.2,0002.0,0005.74,0009.54,0005.03
2021-08-20 00:18:00,,0824.2,5.01,0.00,32.4,28.8,00.0,40.5,32.4,33.9,0002.1,0005.75,0009.43,0005.09
2021-08-20 00:19:00,,0824.2,4.99,0.00,32.4,29.0,00.0,40.5,32.4,34.3,0002.4,0005.83,0009.96,0005.14
2021-08-20 00:20:00,,0824.1,5.00,0.00,32.4,29.0,00.0,40.6,32.5,34.3,0002.4,0005.92,0010.18,0005.20
2021-08-20 00:21:00,,0824.1,5.01,0.00,32.3,28.5,00.0,40.6,32.3,34.2,0002.6,0006.13,0010.71,0005.29
2021-08-20 00:22:00,,0824.1,4.99,0.00,32.2,26.8,00.0,40.6,31.8,35.0,0002.8,0006.23,0010.93,0005.36
2021-08-20 00:23:00,,0824.1,5.01,0.00,32.0,25.9,00.0,40.6,31.6,34.6,0002.4,0006.36,0011.06,0005.44
2021-08-20 00:24:00,,0824.0,4.99,0.00,32.0,26.0,00.0,40.6,31.6,33.3,0001.9,0006.39,0011.10,0005.47
2021-08-20 00:25:00,,0823.9,5.00,0.00,31.9,26.4,00.0,40.5,31.7,32.2,0001.7,0006.39,0011.05,0005.48
2021-08-20 00:26:00,,0824.0,5.01,0.00,31.8,26.9,00.0,40.5,31.8,29.9,0001.7,0006.30,0010.86,0005.43
2021-08-20 00:27:00,,0823.9,4.99,0.00,31.8,27.3,00.0,40.4,31.9,30.4,0002.0,0006.22,0010.80,0005.37
2021-08-20 00:28:00,,0823.9,5.00,0.00,31.7,27.7,00.0,40.4,32.0,31.2,0002.4,0006.11,0010.59,0005.29
2021-08-20 00:29:00,,0823.9,5.01,0.00,31.7,28.0,00.0,40.4,32.0,33.1,0002.3,0006.05,0010.65,0005.23
2021-08-20 00:30:00,,0824.0,4.99,0.00,31.6,28.2,00.0,40.4,32.1,34.0,0002.3,0005.96,0010.10,0005.18
2021-08-20 00:31:00,,0824.0,5.01,0.00,31.6,28.4,00.0,40.4,32.1,34.2,0002.1,0005.88,0010.19,0005.12
2021-08-20 00:32:00,,0824.0,4.99,0.00,31.6,28.6,00.0,40.4,32.1,34.5,0001.8,0005.73,0009.85,0005.04
2021-08-20 00:33:00,,0824.0,5.01,0.00,31.6,28.7,00.0,40.4,32.2,35.2,0001.5,0005.63,0009.72,0004.98
2021-08-20 00:34:00,,0824.1,4.98,0.00,31.7,28.9,00.0,40.4,32.3,34.7,0001.4,0005.55,0009.92,0004.94
2021-08-20 00:35:00,,0824.1,5.01,0.00,31.8,29.0,00.0,40.3,32.4,34.0,0001.3,0005.56,0009.94,0004.93
2021-08-20 00:36:00,,0824.2,5.00,0.00,31.9,29.1,00.0,40.3,32.4,34.1,0001.5,0005.61,0010.02,0004.94
2021-08-20 00:37:00,,0824.3,5.00,0.00,31.9,29.1,00.0,40.4,32.5,34.5,0001.4,0005.71,0010.17,0005.02
2021-08-20 00:38:00,,0824.3,5.01,0.00,31.9,28.7,00.0,40.4,32.3,36.3,0001.3,0005.84,0010.33,0005.12
2021-08-20 00:39:00,,0824.4,5.00,0.00,32.0,27.0,00.0,40.4,32.0,36.0,0001.1,0006.01,0010.60,0005.25
2021-08-20 00:40:00,,0824.4,5.02,0.00,32.2,26.0,00.0,40.4,31.9,35.5,0000.9,0006.13,0010.60,0005.35
2021-08-20 00:41:00,,0824.5,5.00,0.00,32.4,26.0,00.0,40.3,32.0,33.8,0000.8,0006.22,0010.74,0005.42
2021-08-20 00:42:00,,0824.4,5.00,0.00,32.5,26.5,00.0,40.3,32.1,32.9,0000.7,0006.30,0010.44,0005.48
2021-08-20 00:43:00,,0824.4,4.99,0.00,32.5,26.9,00.0,40.4,32.1,32.9,0001.1,0006.35,0010.75,0005.55
2021-08-20 00:44:00,,0824.4,5.00,0.00,32.4,27.4,00.0,40.4,32.1,33.2,0001.3,0006.42,0011.02,0005.62
2021-08-20 00:45:00,,0824.5,5.00,0.00,32.4,27.7,00.0,40.5,32.1,34.5,0001.5,0006.51,0010.76,0005.69
2021-08-20 00:46:00,,0824.4,5.01,0.00,32.4,28.0,00.0,40.5,32.2,34.3,0002.0,0006.61,0010.93,0005.77
2021-08-20 00:47:00,,0824.4,5.02,0.00,32.4,28.2,00.0,40.5,32.3,34.0,0001.9,0006.67,0010.99,0005.84
2021-08-20 00:48:00,,0824.4,4.99,0.00,32.4,28.4,00.0,40.6,32.3,33.9,0002.0,0006.71,0011.04,0005.88
2021-08-20 00:49:00,,0824.4,5.02,0.00,32.3,28.6,00.0,40.6,32.3,34.1,0001.9,0006.73,0011.13,0005.90
2021-08-20 00:50:00,,0824.2,4.99,0.00,32.3,28.8,00.0,40.7,32.4,35.1,0002.0,0006.74,0011.21,0005.91
2021-08-20 00:51:00,,0824.2,5.00,0.00,32.4,28.9,00.0,40.7,32.5,35.2,0002.1,0006.78,0011.29,0005.93
2021-08-20 00:52:00,,0824.3,5.00,0.00,32.6,29.0,00.0,40.7,32.7,34.9,0002.0,0006.80,0011.33,0005.96
2021-08-20 00:53:00,,0824.3,5.00,0.00,32.8,29.1,00.0,40.7,32.8,34.6,0002.1,0006.82,0011.33,0005.98
2021-08-20 00:54:00,,0824.2,4.99,0.00,32.8,29.2,00.0,40.8,32.8,34.4,0001.6,0006.87,0011.11,0006.01
2021-08-20 00:55:00,,0824.1,5.01,0.00,32.8,28.8,00.0,40.8,32.6,34.3,0001.6,0006.91,0010.96,0006.03
2021-08-20 00:56:00,,0824.0,4.99,0.00,32.7,27.1,00.0,40.8,32.1,34.1,0001.5,0006.85,0010.88,0006.00
2021-08-20 00:57:00,,0823.9,5.01,0.00,32.5,26.0,00.0,40.8,31.8,33.9,0001.3,0006.80,0010.81,0005.98
2021-08-20 00:58:00,,0823.7,4.98,0.00,32.4,26.0,00.0,40.8,31.8,35.0,0001.1,0006.80,0010.87,0005.96
2021-08-20 00:59:00,,0823.7,5.02,0.00,32.3,26.5,00.0,40.8,31.9,35.0,0001.0,0006.81,0010.93,0005.94
